Location: Krakow
(50.0830°N, 19.9170°E)
Time: 10:53:29
(UTC+01:00)

S-56A Canister/Altair - All Passes

Search period start: 29 November 2023 00:00
Search period end: 09 December 2023 00:00
Orbit: 640 x 2489 km, 38.9° (Epoch: 28 November)

Date Brightness Start Highest point End Pass type
(mag) Time Alt. Az. Time Alt. Az. Time Alt. Az.
29 Nov - 13:50:06 10° SSW 13:53:35 20° SSE 13:57:43 10° ESE daylight
29 Nov - 15:51:47 10° WSW 15:56:20 28° S 16:02:24 10° SE daylight
29 Nov - 17:54:48 10° WSW 17:59:35 21° SSW 18:05:45 10° SSE visible
30 Nov - 13:17:35 10° SSW 13:20:40 18° SSE 13:24:10 10° ESE daylight
30 Nov - 15:19:03 10° SW 15:23:20 27° S 15:28:49 10° ESE daylight
30 Nov - 17:21:56 10° WSW 17:26:27 21° SSW 17:32:15 10° SSE visible
01 Dec - 12:45:06 10° SSW 12:47:46 15° SSE 12:50:38 10° ESE daylight
01 Dec - 14:46:20 10° SW 14:50:20 26° S 14:55:19 10° ESE daylight
01 Dec - 16:49:06 10° WSW 16:53:21 21° SSW 16:58:46 10° SSE visible
02 Dec - 12:12:41 10° S 12:14:51 13° SSE 12:17:05 10° SE daylight
02 Dec - 14:13:36 10° SW 14:17:23 24° S 14:21:53 10° ESE daylight
02 Dec - 16:16:17 10° WSW 16:20:18 21° SSW 16:25:19 10° SSE visible
03 Dec - 11:40:25 10° S 11:41:56 11° SSE 11:43:27 10° SE daylight
03 Dec - 13:40:52 10° SW 13:44:26 22° S 13:48:30 10° ESE daylight
03 Dec - 15:43:28 10° WSW 15:47:16 21° S 15:51:56 10° SE daylight
03 Dec - 17:49:33 10° SSW 17:50:19 10° SSW 17:51:06 10° SSW visible
04 Dec - 13:08:07 10° SW 13:11:30 21° S 13:15:13 10° ESE daylight
04 Dec - 15:10:38 10° WSW 15:14:15 21° S 15:18:35 10° SE daylight
04 Dec - 17:16:01 10° SW 17:17:14 11° SSW 17:18:32 10° SSW visible
05 Dec - 12:35:19 10° SW 12:38:34 20° S 12:42:00 10° ESE daylight
05 Dec - 14:37:49 10° SW 14:41:16 20° S 14:45:19 10° SE daylight
05 Dec - 16:42:42 10° SW 16:44:10 11° SSW 16:45:44 10° S visible
06 Dec - 12:02:29 10° SW 12:05:39 19° S 12:08:50 10° SE daylight
06 Dec - 14:04:56 10° SW 14:08:19 20° S 14:12:06 10° SE daylight
06 Dec - 16:09:30 10° SW 16:11:08 11° SSW 16:12:53 10° S visible
07 Dec - 11:29:36 10° SSW 11:32:43 18° SSE 11:35:44 10° SE daylight
07 Dec - 13:32:02 10° SW 13:35:22 20° S 13:38:58 10° SE daylight
07 Dec - 15:36:20 10° SW 15:38:07 12° SSW 15:40:01 10° S daylight
08 Dec - 10:56:39 10° SSW 10:59:46 17° SSE 11:02:41 10° SE daylight
08 Dec - 12:59:05 10° SW 13:02:25 20° S 13:05:54 10° SE daylight
08 Dec - 15:03:12 10° SW 15:05:06 12° SSW 15:07:10 10° S daylight
